DECAYED

RESURS P1 DEB, 60221 (Decayed)

Orbit data source: Space-Track

RESURS P1 DEB, 60221 was space debris in LEO originally from a Commonwealth of Independent States-origin launch on Tue, 25 Jun 2013 UTC launched from the Tyuratam Missile And Space Complex (TTMTR). Debris objects in space refer to the collection of defunct objects orbiting the Earth. Examples of debris include non-operational satellites, rocket bodies, and fragments generated from explosions, collisions, or faulty payload assembly.

Not visible in the next 10 days
RESURS P1 DEB details
Identifier
60221, 2013-030K
Orbit
Decayed
Last TLE update5 months ago
Origin
Flag of CISTSSKBP? (CIS)
ManufacturerTSSKBP?
MissionDecayed spacecraft
Bus & MotorUnknown
MassUnknown
Launch date (UTC)
2013-06-25 (11 years ago)
Launch vehicleUnknown
Launch site
Tyuratam Missile And Space Complex (TTMTR)
Object type
Payload
Rocket body
Debris
Shape & HBRUnknown
Radar Cross SectionSmall (<0.1 m²)

Expand to show TLE details & history

TLE from 5 months ago
0 RESURS P1 DEB
1 60221U 13030K   24194.64967505  .08299312  21891-5  39191-2 0  9995
2 60221  96.9685 245.0909 0013836 269.9832  89.9874 16.21309739  1619
Epoch: 2024-07-12T15:35Z
Definitive object data (Epoch: 2024-07-12T15:35:31.924Z)
Latitude0.00006°
Longitude80.18495°
Altitude219.248 km
Speed7.775 km/s
True Right ascension16h 20m 21s
True Declination0° 00' 00"
Sunlit
Object was in full shadow at TLE epoch
Visualization observer readout
Observer readout values are unavailable because the object's trajectory could not be propagated. This is usually caused when the trajectory data is faulty or the object's orbit has decayed.
Visualization observer readout
Observer readout values are unavailable because the object's trajectory could not be propagated. This is usually caused when the trajectory data is faulty or the object's orbit has decayed.
Orbital elements
Apogee altitude221.931 km
Perigee altitude203.692 km
Semi-major axis6,590.948 km
Eccentricity0.0013836
Inclination96.9685°
RAAN245.0909°
Arg. of periapsis269.9832°
True anomaly90.14595°
Mean anomaly89.9874°
Eccentric anomaly90.06667°
Mean motion4.05622 °/min
BSTAR0.0039191
Orbital period88.75 mins
Loading maneuver chart data...

RESURS P1 DEB Visibility forecast

Observer location: undefined°, undefined

This satellite is decayed
Span
Click to sort rows by Start time (UTC) header in descending order
Start Az.
Max El. time (UTC)
Max El. Az.
Max El.
End time (UTC)
End Az.
|